User: anonymous   Login
Location: Unspecified
(0.0000°N, 0.0000°E)
Time: 20:09:38
(UTC+00:00)
Language:

Nimbus 3 - Orbit

View from above orbital plane
View from above orbital plane
View from above satellite
View from above satellite

Ground track
Ground track

The orbit data is extracted from the following two-line orbital elements,

1  3890U 69037A   19341.52947035 -.00000049  00000-0 -93169-5 0  9996
2  3890  99.9126 247.5673 0039787  16.1868 156.7665 13.42530696481374
Epoch (UTC): 07 December 2019 12:42:26
Eccentricity: 0.0039787
inclination: 99.9126°
perigee height: 1070 km
apogee height: 1129 km
right ascension of ascending node: 247.5673°
argument of perigee: 16.1868°
revolutions per day: 13.42530696
mean anomaly at epoch: 156.7665°
orbit number at epoch: 48137

The dashed part of the orbit path shows where the satellite is in the earth's shadow,  

DLR